Flag for Canada Weather past 2 weeks in Saint John, New Brunswick, Canada

39 °F


Feels Like: 39 °F
Forecast: 43 / 64 °F
Wind: No wind

Location: Saint John

Current Time: Oct 7, 2015 at 1:49:57 AM

Latest Report: Oct 7, 2015 at 1:00 AM

Visibility: 0 mi

Pressure: 29.86 "Hg

Humidity: 100%

Dew point: 39 °F

Location of Saint JohnLocation

Historic Weather in Saint John — Graph


Saint John temperature yesterday

Maximum temperature yesterday: 64 °F (at 3:00 PM)
Minimum temperature yesterday: 39 °F (at 11:00 PM)
Average temperature yesterday: 53 °F

Past Weeks' High & Low Weather Summary

High70 °F (Sep 23, 1:00 PM)100% (Sep 22, 2:00 AM)30.55 "Hg (Sep 22, 2:00 AM)
Low28 °F (Sep 27, 5:00 AM)31% (Sep 26, 5:00 PM)29.74 "Hg (Sep 30, 9:00 PM)
Average52 °F81%30.26 "Hg
* Reported Midnight between Sep 21 and Sep 22 — Midnight between Oct 6 and Oct 7, Saint John, Weather by CustomWeather, © 2015

Note: Actual official high and low records may vary slightly from our data, if they occured in-between our weather recording intervals... More about our weather records


Saint John weather history for previous 24 hours

Time TempWeatherWind HumidityBarometerVisibility
12:00 AM
Wed, Oct 7
41 °FFog.No wind100%29.87 "Hg1 mi
11:00 PM
Tue, Oct 6
39 °FFog.No wind100%29.88 "Hg1 mi
10:00 PM41 °FPassing clouds.2 mph93%29.88 "Hg15 mi
9:00 PM41 °FClear.No wind100%29.88 "Hg15 mi
8:00 PM46 °FPassing clouds.No wind100%29.89 "Hg15 mi
7:00 PM52 °FPassing clouds.5 mph94%29.88 "Hg15 mi
6:00 PM59 °FPassing clouds.7 mph72%29.88 "Hg15 mi
5:00 PM61 °FPassing clouds.7 mph68%29.88 "Hg15 mi
4:00 PM59 °FPassing clouds.7 mph72%29.89 "Hg15 mi
3:00 PM64 °FScattered clouds.5 mph60%29.90 "Hg15 mi
2:00 PM63 °FPartly sunny.2 mph59%29.93 "Hg15 mi
1:00 PM61 °FPartly sunny.3 mph63%29.94 "Hg15 mi
12:00 PM61 °FScattered clouds.5 mph63%29.96 "Hg15 mi
11:00 AM61 °FPassing clouds.5 mph63%29.97 "Hg15 mi
10:00 AM57 °FScattered clouds.6 mph77%29.98 "Hg15 mi
9:00 AM54 °FBroken clouds.6 mph88%29.99 "Hg15 mi
8:00 AM52 °FPassing clouds.3 mph94%29.99 "Hg15 mi
7:00 AM50 °FPassing clouds.3 mph94%30.00 "Hg15 mi
6:00 AM50 °FOvercast.3 mph94%30.01 "Hg15 mi
5:00 AM50 °FOvercast.3 mph94%30.02 "Hg15 mi
3:00 AM50 °FOvercast.2 mph94%30.06 "Hg15 mi
2:00 AM50 °FPartly cloudy.2 mph94%30.08 "Hg15 mi
1:00 AM50 °FPassing clouds.No wind94%30.09 "Hg15 mi
Weather by CustomWeather, © 2015

See weather overviewHow to use our weather pages